Weather History for Keene, NH

Change the Weather History Date:

Saturday, June 15, 2013

  Actual Average Record
Temperature  
Mean Temperature 60 °F -  
Max Temperature 75 °F 80 °F 96 °F (1988)
Min Temperature 46 °F 52 °F 31 °F (1933)
Degree Days  
Heating Degree Days 4    
Growing Degree Days 10 (Base 50)    
Moisture  
Dew Point 44 °F    
Average Humidity 57    
Maximum Humidity 88    
Minimum Humidity 27    
Precipitation  
Precipitation 0.82 in - - ()
Sea Level Pressure  
Sea Level Pressure 29.91 in    
Wind  
Wind Speed 3 mph (West)    
Max Wind Speed 12 mph    
Max Gust Speed 20 mph    
Visibility 8 miles    
Events      
Averages and records for this station are not official NWS values.
T = Trace of Precipitation, MM = Missing Value Source: NWS Daily Summary

Daily Weather History Graph

Daily Weather History Graph

Search for Another Location

Airport:

Trip Planner

Search our weather history database for the weather conditions in past years. The results will help you decide how hot, cold, wet, or windy it might be!

Date:

Astronomy

Jun. 15, 2013 Rise Set
Actual Time 5:09 AM EDT 8:29 PM EDT
Civil Twilight 4:34 AM EDT 9:04 PM EDT
Nautical Twilight 3:48 AM EDT 9:50 PM EDT
Astronomical Twilight 2:52 AM EDT 10:47 PM EDT
Moon 11:50 AM EDT (6/15) No Moon Set
Length of Visible Light 16h 30m
Length of Day
15h 20m
Waxing Crescent, 39% of the Moon is Illuminated
Jun 15
Waxing Crescent
Jun 16
First Quarter
Jun 23
Full
Jun 30
Last Quarter
Jul 8
New

Hourly Weather History & Observations

Time (EDT) Temp. Dew Point Humidity Pressure Visibility Wind Dir Wind Speed Gust Speed Precip Events Conditions
12:15 AM 53.6 °F 48.2 °F 82% 29.83 in 8.0 mi Calm Calm - 0.01 in   Clear
12:35 AM 53.6 °F 48.2 °F 82% 29.84 in 8.0 mi Calm Calm - 0.02 in   Clear
12:55 AM 53.6 °F 48.2 °F 82% 29.83 in 10.0 mi Calm Calm - 0.03 in   Clear
1:15 AM 51.8 °F 48.2 °F 88% 29.83 in 7.0 mi Calm Calm - N/A   Clear
1:35 AM 51.8 °F 46.4 °F 82% 29.84 in 6.0 mi South 3.5 mph - 0.01 in   Clear
1:55 AM 51.8 °F 46.4 °F 82% 29.84 in 7.0 mi SSW 3.5 mph - 0.02 in   Clear
2:15 AM 51.8 °F 46.4 °F 82% 29.85 in 10.0 mi Calm Calm - 0.01 in   Clear
2:35 AM 50.0 °F 46.4 °F 87% 29.86 in 3.0 mi Calm Calm - 0.01 in   Clear
2:55 AM 48.2 °F 44.6 °F 87% 29.86 in 1.5 mi Calm Calm - 0.02 in   Unknown
3:15 AM 48.2 °F 44.6 °F 87% 29.87 in 3.0 mi Calm Calm - 0.01 in   Clear
3:35 AM 48.2 °F 44.6 °F 87% 29.87 in 7.0 mi Calm Calm - 0.01 in   Clear
3:55 AM 48.2 °F 44.6 °F 87% 29.88 in 7.0 mi Calm Calm - 0.02 in   Clear
4:15 AM 48.2 °F 44.6 °F 87% 29.88 in 0.5 mi Calm Calm - 0.01 in   Overcast
4:35 AM 48.2 °F 44.6 °F 87% 29.88 in 0.5 mi Calm Calm - 0.01 in   Overcast
4:55 AM 48.2 °F 44.6 °F 87% 29.89 in 0.5 mi Calm Calm - 0.02 in   Overcast
5:15 AM 46.4 °F 42.8 °F 87% 29.90 in 0.2 mi Calm Calm - N/A   Overcast
5:35 AM 46.4 °F 42.8 °F 87% 29.91 in 0.2 mi Calm Calm - 0.01 in   Overcast
5:55 AM 46.4 °F 42.8 °F 87% 29.91 in 0.2 mi Calm Calm - N/A   Overcast
6:15 AM 46.4 °F 42.8 °F 87% 29.92 in 0.2 mi Calm Calm - N/A   Overcast
6:35 AM 48.2 °F 44.6 °F 87% 29.92 in 0.2 mi Calm Calm - N/A   Overcast
6:55 AM 48.2 °F 44.6 °F 87% 29.93 in 0.2 mi Calm Calm - N/A   Overcast
7:35 AM 51.8 °F 46.4 °F 82% 29.94 in 10.0 mi Calm Calm - N/A   Partly Cloudy
7:55 AM 53.6 °F 48.2 °F 82% 29.94 in 10.0 mi Calm Calm - 0.01 in   Clear
8:15 AM 57.2 °F 48.2 °F 72% 29.95 in 10.0 mi Calm Calm - 0.01 in   Clear
8:35 AM 59.0 °F 48.2 °F 67% 29.95 in 10.0 mi Calm Calm - 0.01 in   Clear
8:55 AM 60.8 °F 48.2 °F 63% 29.96 in 10.0 mi Calm Calm - 0.02 in   Clear
9:15 AM 62.6 °F 48.2 °F 59% 29.95 in 10.0 mi North 3.5 mph - N/A   Clear
9:35 AM 64.4 °F 46.4 °F 52% 29.96 in 10.0 mi NNW 6.9 mph - 0.01 in   Clear
9:55 AM 66.2 °F 44.6 °F 46% 29.95 in 10.0 mi Calm Calm - 0.02 in   Clear
10:15 AM 66.2 °F 42.8 °F 43% 29.95 in 10.0 mi NNW 10.4 mph - N/A   Clear
10:35 AM 69.8 °F 41.0 °F 35% 29.95 in 10.0 mi NNW 10.4 mph - 0.01 in   Clear
10:55 AM 69.8 °F 41.0 °F 35% 29.94 in 10.0 mi NNW 6.9 mph - 0.02 in   Clear
11:15 AM 69.8 °F 42.8 °F 38% 29.94 in 10.0 mi NNE 8.1 mph 16.1 mph 0.01 in   Clear
11:35 AM 69.8 °F 41.0 °F 35% 29.94 in 10.0 mi NW 4.6 mph - 0.02 in   Clear
11:55 AM 71.6 °F 41.0 °F 33% 29.94 in 10.0 mi NNW 10.4 mph - 0.03 in   Clear
12:15 PM 71.6 °F 41.0 °F 33% 29.94 in 10.0 mi North 9.2 mph - 0.01 in   Clear
12:35 PM 71.6 °F 39.2 °F 31% 29.94 in 10.0 mi West 9.2 mph 16.1 mph 0.04 in   Clear
1:35 PM 73.4 °F 39.2 °F 29% 29.93 in 10.0 mi West 9.2 mph - N/A   Clear
1:55 PM 73.4 °F 39.2 °F 29% 29.92 in 10.0 mi WNW 8.1 mph - N/A   Clear
2:15 PM 73.4 °F 39.2 °F 29% 29.92 in 10.0 mi West 11.5 mph 17.3 mph N/A   Scattered Clouds
2:35 PM 73.4 °F 37.4 °F 27% 29.92 in 10.0 mi West 6.9 mph 19.6 mph N/A   Partly Cloudy
2:55 PM 73.4 °F 37.4 °F 27% 29.91 in 10.0 mi WNW 8.1 mph 19.6 mph N/A   Clear
3:15 PM 73.4 °F 37.4 °F 27% 29.91 in 10.0 mi NW 10.4 mph 16.1 mph N/A   Clear
3:35 PM 73.4 °F 39.2 °F 29% 29.91 in 10.0 mi WNW 10.4 mph - N/A   Clear
3:55 PM 75.2 °F 39.2 °F 27% 29.91 in 10.0 mi NW 9.2 mph 18.4 mph N/A   Clear
4:15 PM 75.2 °F 39.2 °F 27% 29.90 in 10.0 mi NW 8.1 mph - N/A   Scattered Clouds
4:35 PM 75.2 °F 41.0 °F 29% 29.90 in 10.0 mi WNW 9.2 mph - N/A   Partly Cloudy
4:55 PM 75.2 °F 42.8 °F 31% 29.89 in 10.0 mi West 9.2 mph - 0.19 in   Clear
5:15 PM 73.4 °F 42.8 °F 33% 29.89 in 10.0 mi WSW 8.1 mph 16.1 mph 0.06 in   Scattered Clouds
5:35 PM 73.4 °F 42.8 °F 33% 29.89 in 10.0 mi WNW 3.5 mph - 0.11 in   Scattered Clouds
5:55 PM 73.4 °F 42.8 °F 33% 29.89 in 10.0 mi West 3.5 mph - N/A   Partly Cloudy
6:15 PM 73.4 °F 42.8 °F 33% 29.89 in 10.0 mi SW 4.6 mph - N/A   Scattered Clouds
6:35 PM 73.4 °F 44.6 °F 36% 29.89 in 10.0 mi South 4.6 mph - N/A   Scattered Clouds
6:55 PM 73.4 °F 42.8 °F 33% 29.89 in 10.0 mi West 5.8 mph - N/A   Clear
7:15 PM 71.6 °F 44.6 °F 38% 29.90 in 10.0 mi Calm Calm - N/A   Partly Cloudy
7:35 PM 73.4 °F 46.4 °F 38% 29.90 in 10.0 mi West 3.5 mph - N/A   Scattered Clouds
7:55 PM 71.6 °F 46.4 °F 41% 29.90 in 10.0 mi WSW 3.5 mph - 0.11 in   Partly Cloudy
8:15 PM 69.8 °F 46.4 °F 43% 29.91 in 10.0 mi WSW 3.5 mph - 0.02 in   Clear
8:35 PM 68.0 °F 46.4 °F 46% 29.91 in 10.0 mi WSW 3.5 mph - 0.04 in   Clear
8:55 PM 66.2 °F 46.4 °F 49% 29.91 in 10.0 mi SW 4.6 mph - 0.06 in   Clear
9:15 PM 64.4 °F 46.4 °F 52% 29.92 in 10.0 mi SSW 6.9 mph - 0.01 in   Clear
9:35 PM 62.6 °F 46.4 °F 55% 29.92 in 10.0 mi SSW 5.8 mph - 0.02 in   Clear
9:55 PM 60.8 °F 48.2 °F 63% 29.93 in 10.0 mi Calm Calm - 0.04 in   Clear
10:35 PM 60.8 °F 46.4 °F 59% 29.94 in 10.0 mi Calm Calm - 0.02 in   Clear
10:55 PM 57.2 °F 48.2 °F 72% 29.94 in 10.0 mi West 4.6 mph - 0.03 in   Clear
11:15 PM 57.2 °F 48.2 °F 72% 29.95 in 10.0 mi Calm Calm - 0.01 in   Clear
11:35 PM 55.4 °F 46.4 °F 72% 29.95 in 10.0 mi Calm Calm - 0.01 in   Clear
11:55 PM 55.4 °F 46.4 °F 72% 29.95 in 10.0 mi Calm Calm - 0.02 in   Clear